Location: Gauravaram
(16.6995°N, 80.5417°E)
Time: 20:56:25
(UTC+00:00)

Cosmos 1703 - Pass Details

Date: 03 August 2024
Orbit: 476 x 490 km, 82.5° (Epoch: 18 September)

Event Time Altitude Azimuth Distance (km) Brightness Sun altitude
Rises 22:52:25 0° 353° (N) 2,579 7.0 -20.1°
Reaches altitude 10° 22:54:32 10° 352° (N) 1,692 6.0 -19.6°
Maximum altitude 22:58:14 78° 266° (W) 506 2.9 -18.8°
Enters shadow 23:00:17 25° 182° (S) 1,027 4.4 -18.4°
